Location: Newark
(30.1000°N, 109.4667°E)
Time: 21:23:19
(UTC+00:00)

A-11 Canister half - Pass Details

Date: 24 February 2020
Orbit: 1516 x 1683 km, 47.2° (Epoch: 09 April)

Event Time Altitude Azimuth Distance (km) Brightness Sun altitude
Rises 15:26:10 0° 306° (NW) 4,769 12.0 -60.7°
Reaches altitude 10° 15:29:20 10° 303° (WNW) 3,760 11.3 -61.2°
Enters shadow 15:30:16 14° 302° (WNW) 3,470 11.1 -61.4°
